JO-97
1 43803U 18099AX  24332.11425099  .00021383  00000-0  11925-2 0  9997
2 43803  97.4992  27.5880 0009728 101.3889 258.8435 15.13552365327289
Suomi 100
1 43804U 18099AY  24332.60840673  .00019534  00000-0  11315-2 0  9999
2 43804  97.5060  27.7682 0015467 100.3770 259.9205 15.12145559327328
ISAT
1 43879U 18111D   24332.59569013  .00030754  00000-0  14773-2 0  9998
2 43879  97.6065 238.2018 0012143 142.9306 217.2769 15.18717287324141
UWE-4
1 43880U 18111E   24332.53053763  .00026577  00000-0  13507-2 0  9996
2 43880  97.5996 237.6559 0014913 156.3694 203.8227 15.16745481324127
Sparrow
1 43881U 18111F   24332.50284226  .00032655  00000-0  15369-2 0  9996
2 43881  97.6175 240.3686 0007821 178.7119 181.4136 15.19451550324203
Prox-1
1 44339U 19036A   24332.48449021  .00019975  00000-0  29983-2 0  9992
2 44339  23.9981 250.3224 0007935  26.5189 333.5712 14.73026393289292
SONATE
1 44400U 19038Q   24332.48522840  .00061028  00000-0  11420-2 0  9997
2 44400  97.7131 335.4156 0009368 233.5091 126.5296 15.48459886299210
Taurus 1
1 44530U 19059C   24332.75642976  .00018488  00000-0  38041-2 0  9997
2 44530  98.5886  97.9632 0010577 269.8793  90.1194 14.60555740275591
Duchifat 3
1 44854U 19089C   24332.78670608  .00046187  00000-0  16790-2 0  9999
2 44854  36.9499 128.7623 0011069  27.4960 332.6375 15.27259967273128
TO-108
1 44881U 19093C   24332.79976544  .00003295  00000-0  39426-3 0  9998
2 44881  97.8154  46.4000 0014905 143.0026 217.2220 14.84738913267313
FloripaSat 1
1 44885U 19093G   24332.78777487  .00015185  00000-0  14133-2 0  9994
2 44885  97.8322  54.4503 0012445 130.1051 230.1261 14.94337049267767
RS-44
1 44909U 19096E   24332.35391357  .00000043  00000-0  12313-3 0  9991
2 44909  82.5224 356.3522 0218006  30.0080 331.3308 12.79736351229845
UPMSat 2
1 46276U 20061E   24332.45932120  .00045524  00000-0  95107-3 0  9999
2 46276  97.2764  37.7297 0000234 170.7887 189.3366 15.45372607235280
AmicalSat
1 46287U 20061R   24332.46135586  .00231527  00000-0  18940-2 0  9992
2 46287  97.3218  42.3132 0002086 292.5784  67.5257 15.69833807234839
SALSAT
1 46495U 20068K   24331.87235690  .00014910  00000-0  74078-3 0  9991
2 46495  97.8377 295.9333 0014791 110.8327 249.4491 15.17675712228949
IDEASSat
1 47458U 21006AX  24332.56791065  .00664553  18254-3  19139-2 0  9997
2 47458  97.2927  36.1789 0004256 298.4528  61.6318 15.93079333214011
CubeSX-Sirius-HSE
1 47951U 21022V   24332.82134257  .00071530  00000-0  17329-2 0  9999
2 47951  97.4407 232.0386 0006933 285.7314  74.3168 15.40804003203621
CubeSX-HSE
1 47952U 21022W   24332.68962232  .00068797  00000-0  16477-2 0  9990
2 47952  97.4404 232.0442 0006883 283.3094  76.7384 15.41163922203619
KSU-Cubesat
1 47954U 21022Y   24332.17853070  .00105353  00000-0  19037-2 0  9990
2 47954  97.4405 234.0386 0003994 274.8684  85.2111 15.49321467203410
GRBAlpha
1 47959U 21022AD  24332.77748542  .00070067  00000-0  16781-2 0  9994
2 47959  97.4405 232.3019 0006728 283.3089  76.7406 15.41159836202457
Orbicraft-Zorkiy
1 47960U 21022AE  24332.70410311  .00088631  00000-0  17774-2 0  9998
2 47960  97.4449 234.3719 0004827 280.1512  79.9193 15.46372200203243
TUBIN
1 48900U 21059X   24332.77237796  .00046034  00000-0  11082-2 0  9991
2 48900  97.6610 123.5490 0005353 226.9397 133.1401 15.41125827190010
LEDSAT
1 49069U 21073D   24332.65571160  .00048142  00000-0  13310-2 0  9995
2 49069  97.4187  43.6971 0015565  64.1662 296.1185 15.36753876181444
CUTE
1 49263U 21088D   24332.44361887  .00055287  00000-0  17321-2 0  9991
2 49263  97.4778  38.4644 0010569 221.9230 138.1203 15.32841115174525
TeikyoSat 4
1 49396U 21102B   24332.39123295  .00005715  00000-0  39463-3 0  9991
2 49396  97.4401  11.7080 0014464  80.2440 280.0420 15.06058604167300
Z-Sat
1 49399U 21102E   24332.78007648  .00009924  00000-0  58766-3 0  9993
2 49399  97.4108  14.1566 0020645  57.7886 302.5342 15.11425774167679
KOSEN 1
1 49402U 21102H   24331.11239187  .00014841  00000-0  77847-3 0  9994
2 49402  97.4025  14.6829 0018470  45.0338 315.2388 15.15701284167638
HO-113
1 50466U 21131B   24332.76930769  .00001990  00000-0  64180-3 0  9991
2 50466  98.5221  57.0783 0004130  12.6542 347.4749 14.40291561153547
IRIS-A
1 51044U 22002BN  24332.47565168  .00067302  00000-0  13567-2 0  9998
2 51044  97.3632  39.6453 0004702 162.3748 197.7666 15.46309855159519
Planetum 1
1 52738U 22057G   24331.86499170  .02176111  55777-2  18544-2 0  9994
2 52738  97.5599 108.4250 0009998 294.1496  65.8743 16.14853217139915
Foresail-1
1 52766U 22057AL  24332.63435410  .00066402  00000-0  13250-2 0  9993
2 52766  97.5965 103.6591 0007661 267.8407  92.1965 15.46592033139573
SNUGLITE 2
1 52899U 22065F   24332.62703135  .00004204  00000-0  84518-3 0  9998
2 52899  98.1410 110.9744 0007646   9.5828 350.5517 14.62110482128139
IO-117
1 53106U 22080B   24331.77042742 -.00000003  00000-0  00000-0 0  9997
2 53106  70.1300 136.0386 0008362  70.8561 289.3004  6.42557781 55710
FO-118
1 54684U 22167C   24332.79025707  .00127247  00000-0  19876-2 0  9992
2 54684  97.6143 123.9073 0008857 282.1341  77.8919 15.53312469109463
SSS-2B
1 56184U 23054G   24332.71265245  .00397095  00000-0  19399-2 0  9990
2 56184  97.3388 235.0336 0004422  91.0828 269.0947 15.81270066 91537
SO-120
1 56992U 23084BU  24332.82205497  .00163888  00000-0  24120-2 0  9994
2 56992  97.5372  96.5197 0005908 181.1171 179.0070 15.54848816 81334
MRC-100
1 56993U 23084BV  24332.29616338  .00289659  00000-0  26411-2 0  9996
2 56993  97.5344  97.5555 0004398 219.7297 140.3641 15.66979993 81364
UmKA 1 (RS40S)
1 57172U 23091G   24332.76347096  .00014224  00000-0  84391-3 0  9994
2 57172  97.5906  23.3470 0014413 283.6063  76.3561 15.11367182 78165
CubeBel-2 (EU11S)
1 57175U 23091K   24332.77796461  .00018412  00000-0  10317-2 0  9991
2 57175  97.5903  23.6231 0012665 295.4608  64.5312 15.13388553 78188
VERONIKA
1 58261U 23174F   24332.78796821  .00058584  00000-0  17180-2 0  9990
2 58261  97.4434  47.2499 0009186  26.3045 333.8662 15.34936248 58676
KAFASAT
1 58317U 23174BP  24332.57044602  .00104060  00000-0  22564-2 0  9995
2 58317  97.4364  48.7803 0007479 352.6634   7.4503 15.43992420 58770
ENSO
1 58470U 23185J   24332.79329618  .00045894  00000-0  13606-2 0  9990
2 58470  97.4061  38.7268 0010658  62.1942 298.0380 15.34641921 55120
EIRSAT-1
1 58472U 23185L   24332.77124734  .00055498  00000-0  15335-2 0  9994
2 58472  97.4052  39.0258 0009857  61.5707 298.6530 15.36809163 55147
SONATE-2
1 59112U 24043Q   24331.26356519  .00026922  00000-0  10469-2 0  9994
2 59112  97.4942  94.2706 0013719  86.9685 273.3123 15.25920476 40451
MO-122
1 60209U 24125G   24332.55394218  .00028191  00000-0  10862-2 0  9992
2 60209  97.2997 181.4204 0024637 107.4107 252.9828 15.26015457 22268
GRBBeta
1 60237U 24128C   24331.70407211  .00008724  00000-0  71678-3 0  9993
2 60237  61.9953  37.4760 0028559   7.3703 352.7800 14.99487342 20940
Curium One
1 60242U 24128H   24332.53774978  .00014668  00000-0  11775-2 0  9993
2 60242  61.9857  34.6953 0029000 358.7992   1.3023 14.99974026 21076
ROBUSTA-3A
1 60243U 24128J   24332.62620075  .00015349  00000-0  12419-2 0  9995
2 60243  61.9923  34.6772 0027062 356.2449   3.8433 14.99686408 21083
CatSat
1 60246U 24125J   24332.52607391  .00022334  00000-0  89055-3 0  9993
2 60246  97.2805 182.2293 0050294  63.4804 297.1577 15.24011263 20367
CosmoGirlSat
1 60953U 98067WT  24332.66717060  .00746130  24287-3  20319-2 0  9994
2 60953  51.6193 215.0809 0010605 206.1445 153.9028 15.93465808 14146
Sakura
1 60954U 98067WU  24331.73493809  .02223257  53765-2  20174-2 0  9997
2 60954  51.6124 217.8107 0010323 214.7181 145.3161 16.13092160 14021
CySat-1
1 61501U 98067WZ  24332.70761360  .00280824  00000-0  23745-2 0  9994
2 61501  51.6326 222.1751 0012056 207.5355 152.5004 15.68234375  7883
DORA
1 61502U 98067XA  24332.08987329  .02801766  15657-1  32266-2 0  9990
2 61502  51.6036 221.7283 0015044 209.1947 150.8228 16.11892152  7827
AO-123
1 99130U 24099A   24330.49763889  .00064149  00000-0  26989-2 0 00005
2 99130 097.3813 194.9746 0017579 164.3269 001.1317 15.23282521000010
